User: anonymous   Login
Location: Terschelling
(53.4100°N, 5.3500°E)
Time: 08:38:49
(UTC+01:00)
Language:

LilacSat-2 - Orbit

View from above orbital plane
View from above orbital plane
View from above satellite
View from above satellite

Ground track
Ground track

The orbit data is extracted from the following two-line orbital elements,

1 40908U 15049K   23336.91549918  .00009078  00000-0  39552-3 0  9994
2 40908  97.5279 339.8188 0012228 329.4799  30.5724 15.22367087453442
Epoch (UTC): 02 December 2023 21:58:19
Eccentricity: 0.0012228
inclination: 97.5279°
perigee height: 490 km
apogee height: 507 km
right ascension of ascending node: 339.8188°
argument of perigee: 329.4799°
revolutions per day: 15.22367087
mean anomaly at epoch: 30.5724°
orbit number at epoch: 45344

The dashed part of the orbit path shows where the satellite is in the earth's shadow,  

DLR